Year,Month,Day,Hour,Minute,Value (Times are PST for temperature in C)
2014,07,14,00,00,21.40
2014,07,14,00,01,21.40
2014,07,14,00,02,21.40
2014,07,14,00,03,21.40
2014,07,14,00,04,21.40
2014,07,14,00,05,21.40
2014,07,14,00,06,21.40
2014,07,14,00,07,21.30
2014,07,14,00,08,21.40
2014,07,14,00,09,21.40
2014,07,14,00,10,21.40
2014,07,14,00,11,21.40
2014,07,14,00,12,21.30
2014,07,14,00,13,21.30
2014,07,14,00,14,21.30
2014,07,14,00,15,21.30
2014,07,14,00,16,21.30
2014,07,14,00,17,21.30
2014,07,14,00,18,21.20
2014,07,14,00,19,21.20
2014,07,14,00,20,21.20
2014,07,14,00,21,21.20
2014,07,14,00,22,21.20
2014,07,14,00,23,21.20
2014,07,14,00,24,21.20
2014,07,14,00,25,21.10
2014,07,14,00,26,21.10
2014,07,14,00,27,21.10
2014,07,14,00,28,21.00
2014,07,14,00,29,21.00
2014,07,14,00,30,20.90
2014,07,14,00,31,20.90
2014,07,14,00,32,20.90
2014,07,14,00,33,20.90
2014,07,14,00,34,20.90
2014,07,14,00,35,20.90
2014,07,14,00,36,20.90
2014,07,14,00,37,20.90
2014,07,14,00,38,20.90
2014,07,14,00,39,20.90
2014,07,14,00,40,20.80
2014,07,14,00,41,20.80
2014,07,14,00,42,20.80
2014,07,14,00,43,20.80
2014,07,14,00,44,20.70
2014,07,14,00,45,20.70
2014,07,14,00,46,20.70
2014,07,14,00,47,20.70
2014,07,14,00,48,20.60
2014,07,14,00,49,20.60
2014,07,14,00,50,20.60
2014,07,14,00,51,20.60
2014,07,14,00,52,20.60
2014,07,14,00,53,20.60
2014,07,14,00,54,20.60
2014,07,14,00,55,20.50
2014,07,14,00,56,20.50
2014,07,14,00,57,20.50
2014,07,14,00,58,20.40
2014,07,14,00,59,20.40
2014,07,14,01,00,20.40
2014,07,14,01,01,20.40
2014,07,14,01,02,20.30
2014,07,14,01,03,20.30
2014,07,14,01,04,20.30
2014,07,14,01,05,20.30
2014,07,14,01,06,20.30
2014,07,14,01,07,20.30
2014,07,14,01,08,20.30
2014,07,14,01,09,20.20
2014,07,14,01,10,20.20
2014,07,14,01,11,20.20
2014,07,14,01,12,20.10
2014,07,14,01,13,20.10
2014,07,14,01,14,20.00
2014,07,14,01,15,20.00
2014,07,14,01,16,19.90
2014,07,14,01,17,19.90
2014,07,14,01,18,19.90
2014,07,14,01,19,19.80
2014,07,14,01,20,19.80
2014,07,14,01,21,19.80
2014,07,14,01,22,19.70
2014,07,14,01,23,19.70
2014,07,14,01,24,19.70
2014,07,14,01,25,19.70
2014,07,14,01,26,19.60
2014,07,14,01,27,19.50
2014,07,14,01,28,19.50
2014,07,14,01,29,19.40
2014,07,14,01,30,19.40
2014,07,14,01,31,19.30
2014,07,14,01,32,19.30
2014,07,14,01,33,19.20
2014,07,14,01,34,19.20
2014,07,14,01,35,19.10
2014,07,14,01,36,19.10
2014,07,14,01,37,19.10
2014,07,14,01,38,19.00
2014,07,14,01,39,19.00
2014,07,14,01,40,19.00
2014,07,14,01,41,19.00
2014,07,14,01,42,18.90
2014,07,14,01,43,18.90
2014,07,14,01,44,18.90
2014,07,14,01,45,18.80
2014,07,14,01,46,18.80
2014,07,14,01,47,18.80
2014,07,14,01,48,18.80
2014,07,14,01,49,18.80
2014,07,14,01,50,18.70
2014,07,14,01,51,18.70
2014,07,14,01,52,18.70
2014,07,14,01,53,18.70
2014,07,14,01,54,18.70
2014,07,14,01,55,18.70
2014,07,14,01,56,18.70
2014,07,14,01,57,18.60
2014,07,14,01,58,18.60
2014,07,14,01,59,18.60
2014,07,14,02,00,18.60
2014,07,14,02,01,18.60
2014,07,14,02,02,18.50
2014,07,14,02,03,18.50
2014,07,14,02,04,18.50
2014,07,14,02,05,18.40
2014,07,14,02,06,18.40
2014,07,14,02,07,18.40
2014,07,14,02,08,18.40
2014,07,14,02,09,18.40
2014,07,14,02,10,18.40
2014,07,14,02,11,18.40
2014,07,14,02,12,18.40
2014,07,14,02,13,18.40
2014,07,14,02,14,18.40
2014,07,14,02,15,18.40
2014,07,14,02,16,18.40
2014,07,14,02,17,18.40
2014,07,14,02,18,18.40
2014,07,14,02,19,18.40
2014,07,14,02,20,18.30
2014,07,14,02,21,18.30
2014,07,14,02,22,18.30
2014,07,14,02,23,18.30
2014,07,14,02,24,18.30
2014,07,14,02,25,18.30
2014,07,14,02,26,18.20
2014,07,14,02,27,18.20
2014,07,14,02,28,18.10
2014,07,14,02,29,18.10
2014,07,14,02,30,18.10
2014,07,14,02,31,18.10
2014,07,14,02,32,18.00
2014,07,14,02,33,17.90
2014,07,14,02,34,17.90
2014,07,14,02,35,17.90
2014,07,14,02,36,17.80
2014,07,14,02,37,17.80
2014,07,14,02,38,17.80
2014,07,14,02,39,17.70
2014,07,14,02,40,17.70
2014,07,14,02,41,17.70
2014,07,14,02,42,17.70
2014,07,14,02,43,17.60
2014,07,14,02,44,17.60
2014,07,14,02,45,17.50
2014,07,14,02,46,17.50
2014,07,14,02,47,17.50
2014,07,14,02,48,17.40
2014,07,14,02,49,17.40
2014,07,14,02,50,17.40
2014,07,14,02,51,17.40
2014,07,14,02,52,17.30
2014,07,14,02,53,17.30
2014,07,14,02,54,17.30
2014,07,14,02,55,17.30
2014,07,14,02,56,17.20
2014,07,14,02,57,17.20
2014,07,14,02,58,17.10
2014,07,14,02,59,17.10
2014,07,14,03,00,17.00
2014,07,14,03,01,17.00
2014,07,14,03,02,16.90
2014,07,14,03,06,16.80
2014,07,14,03,07,16.80
2014,07,14,03,08,16.80
2014,07,14,03,09,16.80
2014,07,14,03,10,16.80
2014,07,14,03,11,16.80
2014,07,14,03,12,16.80
2014,07,14,03,13,16.80
2014,07,14,03,14,16.80
2014,07,14,03,15,16.80
2014,07,14,03,16,16.70
2014,07,14,03,17,16.70
2014,07,14,03,18,16.70
2014,07,14,03,19,16.70
2014,07,14,03,20,16.70
2014,07,14,03,21,16.70
2014,07,14,03,22,16.70
2014,07,14,03,23,16.60
2014,07,14,03,24,16.60
2014,07,14,03,25,16.60
2014,07,14,03,26,16.60
2014,07,14,03,27,16.60
2014,07,14,03,28,16.60
2014,07,14,03,29,16.70
2014,07,14,03,30,16.70
2014,07,14,03,31,16.70
2014,07,14,03,32,16.70
2014,07,14,03,33,16.70
2014,07,14,03,34,16.70
2014,07,14,03,35,16.70
2014,07,14,03,36,16.70
2014,07,14,03,37,16.70
2014,07,14,03,38,16.70
2014,07,14,03,39,16.70
2014,07,14,03,40,16.70
2014,07,14,03,41,16.70
2014,07,14,03,42,16.70
2014,07,14,03,43,16.70
2014,07,14,03,44,16.70
2014,07,14,03,45,16.70
2014,07,14,03,46,16.70
2014,07,14,03,47,16.70
2014,07,14,03,48,16.70
2014,07,14,03,49,16.70
2014,07,14,03,50,16.70
2014,07,14,03,51,16.70
2014,07,14,03,52,16.70
2014,07,14,03,53,16.60
2014,07,14,03,54,16.60
2014,07,14,03,55,16.60
2014,07,14,03,56,16.60
2014,07,14,03,57,16.60
2014,07,14,03,58,16.60
2014,07,14,03,59,16.60
2014,07,14,04,00,16.60
2014,07,14,04,01,16.60
2014,07,14,04,02,16.50
2014,07,14,04,03,16.50
2014,07,14,04,04,16.50
2014,07,14,04,05,16.50
2014,07,14,04,06,16.50
2014,07,14,04,07,16.40
2014,07,14,04,08,16.40
2014,07,14,04,09,16.40
2014,07,14,04,10,16.30
2014,07,14,04,11,16.30
2014,07,14,04,12,16.20
2014,07,14,04,13,16.20
2014,07,14,04,14,16.10
2014,07,14,04,15,16.10
2014,07,14,04,16,16.10
2014,07,14,04,17,16.00
2014,07,14,04,18,16.00
2014,07,14,04,19,16.00
2014,07,14,04,20,15.90
2014,07,14,04,21,15.90
2014,07,14,04,22,15.90
2014,07,14,04,23,15.90
2014,07,14,04,24,15.80
2014,07,14,04,25,15.80
2014,07,14,04,26,15.80
2014,07,14,04,27,15.80
2014,07,14,04,28,15.80
2014,07,14,04,29,15.80
2014,07,14,04,30,15.70
2014,07,14,04,31,15.70
2014,07,14,04,32,15.60
2014,07,14,04,33,15.60
2014,07,14,04,34,15.60
2014,07,14,04,35,15.50
2014,07,14,04,36,15.50
2014,07,14,04,37,15.40
2014,07,14,04,38,15.40
2014,07,14,04,39,15.40
2014,07,14,04,40,15.40
2014,07,14,04,41,15.40
2014,07,14,04,42,15.40
2014,07,14,04,43,15.40
2014,07,14,04,44,15.40
2014,07,14,04,45,15.40
2014,07,14,04,46,15.40
2014,07,14,04,47,15.40
2014,07,14,04,48,15.40
2014,07,14,04,49,15.40
2014,07,14,04,50,15.40
2014,07,14,04,51,15.40
2014,07,14,04,52,15.40
2014,07,14,04,53,15.40
2014,07,14,04,54,15.40
2014,07,14,04,55,15.40
2014,07,14,04,56,15.40
2014,07,14,04,57,15.40
2014,07,14,04,58,15.40
2014,07,14,04,59,15.30
2014,07,14,05,00,15.30
2014,07,14,05,01,15.30
2014,07,14,05,02,15.30
2014,07,14,05,03,15.30
2014,07,14,05,04,15.30
2014,07,14,05,05,15.30
2014,07,14,05,06,15.30
2014,07,14,05,07,15.30
2014,07,14,05,08,15.30
2014,07,14,05,09,15.30
2014,07,14,05,10,15.30
2014,07,14,05,11,15.30
2014,07,14,05,12,15.30
2014,07,14,05,13,15.20
2014,07,14,05,14,15.20
2014,07,14,05,15,15.20
2014,07,14,05,16,15.20
2014,07,14,05,17,15.10
2014,07,14,05,18,15.10
2014,07,14,05,19,15.10
2014,07,14,05,20,15.10
2014,07,14,05,21,15.00
2014,07,14,05,22,15.00
2014,07,14,05,23,15.00
2014,07,14,05,24,14.90
2014,07,14,05,25,14.90
2014,07,14,05,26,14.90
2014,07,14,05,27,14.90
2014,07,14,05,28,14.80
2014,07,14,05,29,14.80
2014,07,14,05,30,14.80
2014,07,14,05,31,14.70
2014,07,14,05,32,14.70
2014,07,14,05,33,14.70
2014,07,14,05,34,14.70
2014,07,14,05,35,14.70
2014,07,14,05,36,14.60
2014,07,14,05,37,14.60
2014,07,14,05,38,14.60
2014,07,14,05,39,14.60
2014,07,14,05,40,14.60
2014,07,14,05,41,14.60
2014,07,14,05,42,14.60
2014,07,14,05,43,14.60
2014,07,14,05,44,14.60
2014,07,14,05,45,14.60
2014,07,14,05,46,14.60
2014,07,14,05,47,14.60
2014,07,14,05,48,14.60
2014,07,14,05,49,14.60
2014,07,14,05,50,14.60
2014,07,14,05,51,14.60
2014,07,14,05,52,14.60
2014,07,14,05,53,14.60
2014,07,14,05,54,14.60
2014,07,14,05,55,14.50
2014,07,14,05,56,14.50
2014,07,14,05,57,14.50
2014,07,14,05,58,14.50
2014,07,14,05,59,14.50
2014,07,14,06,00,14.50
2014,07,14,06,01,14.40
2014,07,14,06,02,14.40
2014,07,14,06,03,14.40
2014,07,14,06,04,14.40
2014,07,14,06,05,14.40
2014,07,14,06,06,14.40
2014,07,14,06,07,14.40
2014,07,14,06,08,14.40
2014,07,14,06,09,14.40
2014,07,14,06,10,14.40
2014,07,14,06,11,14.40
2014,07,14,06,12,14.50
2014,07,14,06,13,14.50
2014,07,14,06,14,14.50
2014,07,14,06,15,14.50
2014,07,14,06,16,14.50
2014,07,14,06,17,14.50
2014,07,14,06,18,14.50
2014,07,14,06,19,14.40
2014,07,14,06,20,14.40
2014,07,14,06,21,14.50
2014,07,14,06,22,14.50
2014,07,14,06,23,14.40
2014,07,14,06,24,14.40
2014,07,14,06,25,14.40
2014,07,14,06,26,14.40
2014,07,14,06,27,14.40
2014,07,14,06,28,14.40
2014,07,14,06,29,14.40
2014,07,14,06,30,14.40
2014,07,14,06,31,14.40
2014,07,14,06,32,14.40
2014,07,14,06,33,14.40
2014,07,14,06,34,14.40
2014,07,14,06,35,14.40
2014,07,14,06,36,14.40
2014,07,14,06,37,14.40
2014,07,14,06,38,14.40
2014,07,14,06,39,14.40
2014,07,14,06,40,14.40
2014,07,14,06,41,14.40
2014,07,14,06,42,14.40
2014,07,14,06,43,14.50
2014,07,14,06,44,14.50
2014,07,14,06,45,14.50
2014,07,14,06,46,14.50
2014,07,14,06,47,14.60
2014,07,14,06,48,14.60
2014,07,14,06,49,14.60
2014,07,14,06,50,14.70
2014,07,14,06,51,14.70
2014,07,14,06,52,14.70
2014,07,14,06,53,14.70
2014,07,14,06,54,14.80
2014,07,14,06,55,14.80
2014,07,14,06,56,14.80
2014,07,14,06,57,14.80
2014,07,14,06,58,14.90
2014,07,14,06,59,14.90
2014,07,14,07,00,14.90
2014,07,14,07,01,15.00
2014,07,14,07,02,15.10
2014,07,14,07,03,15.20
2014,07,14,07,04,15.20
2014,07,14,07,05,15.30
2014,07,14,07,06,15.30
2014,07,14,07,07,15.30
2014,07,14,07,08,15.30
2014,07,14,07,09,15.30
2014,07,14,07,10,15.30
2014,07,14,07,11,15.30
2014,07,14,07,12,15.30
2014,07,14,07,13,15.30
2014,07,14,07,14,15.30
2014,07,14,07,15,15.30
2014,07,14,07,16,15.30
2014,07,14,07,17,15.30
2014,07,14,07,18,15.30
2014,07,14,07,19,15.30
2014,07,14,07,20,15.30
2014,07,14,07,21,15.40
2014,07,14,07,22,15.40
2014,07,14,07,23,15.40
2014,07,14,07,24,15.50
2014,07,14,07,25,15.50
2014,07,14,07,26,15.60
2014,07,14,07,27,15.70
2014,07,14,07,28,15.70
2014,07,14,07,29,15.80
2014,07,14,07,30,15.80
2014,07,14,07,31,15.80
2014,07,14,07,32,15.80
2014,07,14,07,33,15.80
2014,07,14,07,34,15.80
2014,07,14,07,35,15.80
2014,07,14,07,36,15.90
2014,07,14,07,37,15.90
2014,07,14,07,38,15.90
2014,07,14,07,39,15.90
2014,07,14,07,40,16.00
2014,07,14,07,41,16.00
2014,07,14,07,42,16.10
2014,07,14,07,43,16.10
2014,07,14,07,44,16.10
2014,07,14,07,45,16.20
2014,07,14,07,46,16.20
2014,07,14,07,47,16.20
2014,07,14,07,48,16.20
2014,07,14,07,49,16.30
2014,07,14,07,50,16.30
2014,07,14,07,51,16.30
2014,07,14,07,52,16.30
2014,07,14,07,53,16.30
2014,07,14,07,54,16.30
2014,07,14,07,55,16.40
2014,07,14,07,56,16.40
2014,07,14,07,57,16.40
2014,07,14,07,58,16.40
2014,07,14,07,59,16.40
2014,07,14,08,00,16.40
2014,07,14,08,01,16.50
2014,07,14,08,02,16.50
2014,07,14,08,03,16.60
2014,07,14,08,04,16.60
2014,07,14,08,05,16.60
2014,07,14,08,06,16.70
2014,07,14,08,07,16.70
2014,07,14,08,08,16.80
2014,07,14,08,09,16.80
2014,07,14,08,10,16.90
2014,07,14,08,11,17.00
2014,07,14,08,12,17.10
2014,07,14,08,13,17.20
2014,07,14,08,14,17.30
2014,07,14,08,15,17.40
2014,07,14,08,16,17.50
2014,07,14,08,17,17.60
2014,07,14,08,18,17.70
2014,07,14,08,19,17.80
2014,07,14,08,20,17.80
2014,07,14,08,21,17.90
2014,07,14,08,22,18.00
2014,07,14,08,23,18.10
2014,07,14,08,24,18.20
2014,07,14,08,25,18.30
2014,07,14,08,26,18.30
2014,07,14,08,27,18.30
2014,07,14,08,28,18.30
2014,07,14,08,29,18.40
2014,07,14,08,30,18.40
2014,07,14,08,31,18.40
2014,07,14,08,32,18.40
2014,07,14,08,33,18.40
2014,07,14,08,34,18.40
2014,07,14,08,35,18.40
2014,07,14,08,36,18.40
2014,07,14,08,37,18.40
2014,07,14,08,38,18.50
2014,07,14,08,39,18.60
2014,07,14,08,40,18.70
2014,07,14,08,41,18.80
2014,07,14,08,42,18.90
2014,07,14,08,43,18.90
2014,07,14,08,44,18.90
2014,07,14,08,45,18.90
2014,07,14,08,46,19.00
2014,07,14,08,47,19.10
2014,07,14,08,48,19.10
2014,07,14,08,49,19.30
2014,07,14,08,50,19.30
2014,07,14,08,51,19.40
2014,07,14,08,52,19.50
2014,07,14,08,53,19.60
2014,07,14,08,54,19.70
2014,07,14,08,55,19.80
2014,07,14,08,56,19.90
2014,07,14,08,57,20.00
2014,07,14,08,58,20.10
2014,07,14,08,59,20.10
2014,07,14,09,00,20.20
2014,07,14,09,01,20.20
2014,07,14,09,02,20.20
2014,07,14,09,03,20.20
2014,07,14,09,04,20.20
2014,07,14,09,05,20.30
2014,07,14,09,06,20.30
2014,07,14,09,07,20.40
2014,07,14,09,08,20.50
2014,07,14,09,09,20.50
2014,07,14,09,10,20.50
2014,07,14,09,11,20.40
2014,07,14,09,12,20.40
2014,07,14,09,13,20.50
2014,07,14,09,14,20.60
2014,07,14,09,15,20.60
2014,07,14,09,16,20.70
2014,07,14,09,17,20.80
2014,07,14,09,18,20.90
2014,07,14,09,19,21.00
2014,07,14,09,20,21.00
2014,07,14,09,21,21.10
2014,07,14,09,22,21.10
2014,07,14,09,23,21.10
2014,07,14,09,24,21.10
2014,07,14,09,25,21.10
2014,07,14,09,26,21.20
2014,07,14,09,27,21.20
2014,07,14,09,28,21.20
2014,07,14,09,29,21.20
2014,07,14,09,30,21.30
2014,07,14,09,31,21.30
2014,07,14,09,32,21.30
2014,07,14,09,33,21.30
2014,07,14,09,34,21.40
2014,07,14,09,35,21.50
2014,07,14,09,36,21.50
2014,07,14,09,37,21.50
2014,07,14,09,38,21.50
2014,07,14,09,39,21.50
2014,07,14,09,40,21.40
2014,07,14,09,41,21.30
2014,07,14,09,42,21.20
2014,07,14,09,43,21.10
2014,07,14,09,44,21.10
2014,07,14,09,45,21.10
2014,07,14,09,46,21.20
2014,07,14,09,47,21.20
2014,07,14,09,48,21.20
2014,07,14,09,49,21.20
2014,07,14,09,50,21.20
2014,07,14,09,51,21.10
2014,07,14,09,52,21.20
2014,07,14,09,53,21.10
2014,07,14,09,54,21.10
2014,07,14,09,55,21.10
2014,07,14,09,56,21.10
2014,07,14,09,57,21.20
2014,07,14,09,58,21.30
2014,07,14,09,59,21.30
2014,07,14,10,00,21.30
2014,07,14,10,01,21.30
2014,07,14,10,02,21.40
2014,07,14,10,03,21.40
2014,07,14,10,04,21.40
2014,07,14,10,05,21.50
2014,07,14,10,06,21.60
2014,07,14,10,07,21.60
2014,07,14,10,08,21.70
2014,07,14,10,09,21.70
2014,07,14,10,10,21.70
2014,07,14,10,11,21.70
2014,07,14,10,12,21.70
2014,07,14,10,13,21.80
2014,07,14,10,14,21.80
2014,07,14,10,15,21.90
2014,07,14,10,16,21.90
2014,07,14,10,17,22.00
2014,07,14,10,18,22.00
2014,07,14,10,19,22.00
2014,07,14,10,20,22.10
2014,07,14,10,21,22.10
2014,07,14,10,22,22.10
2014,07,14,10,23,22.10
2014,07,14,10,24,22.10
2014,07,14,10,25,22.10
2014,07,14,10,26,22.20
2014,07,14,10,27,22.30
2014,07,14,10,28,22.30
2014,07,14,10,29,22.40
2014,07,14,10,30,22.50
2014,07,14,10,31,22.50
2014,07,14,10,32,22.60
2014,07,14,10,33,22.60
2014,07,14,10,34,22.70
2014,07,14,10,35,22.80
2014,07,14,10,36,22.90
2014,07,14,10,37,22.90
2014,07,14,10,38,23.00
2014,07,14,10,39,23.00
2014,07,14,10,40,23.00
2014,07,14,10,41,23.10
2014,07,14,10,42,23.10
2014,07,14,10,43,23.10
2014,07,14,10,44,23.10
2014,07,14,10,45,23.10
2014,07,14,10,46,23.10
2014,07,14,10,47,23.10
2014,07,14,10,48,23.10
2014,07,14,10,49,23.20
2014,07,14,10,50,23.20
2014,07,14,10,51,23.20
2014,07,14,10,52,23.20
2014,07,14,10,53,23.20
2014,07,14,10,54,23.30
2014,07,14,10,55,23.30
2014,07,14,10,56,23.30
2014,07,14,10,57,23.30
2014,07,14,10,58,23.40
2014,07,14,10,59,23.40
2014,07,14,11,00,23.40
2014,07,14,11,01,23.50
2014,07,14,11,02,23.50
2014,07,14,11,03,23.50
2014,07,14,11,04,23.40
2014,07,14,11,05,23.50
2014,07,14,11,06,23.60
2014,07,14,11,07,23.60
2014,07,14,11,08,23.70
2014,07,14,11,09,23.80
2014,07,14,11,10,23.80
2014,07,14,11,11,23.80
2014,07,14,11,12,23.80
2014,07,14,11,13,23.80
2014,07,14,11,14,23.80
2014,07,14,11,15,23.90
2014,07,14,11,16,23.90
2014,07,14,11,17,24.00
2014,07,14,11,18,24.10
2014,07,14,11,19,24.20
2014,07,14,11,20,24.20
2014,07,14,11,21,24.20
2014,07,14,11,22,24.30
2014,07,14,11,23,24.30
2014,07,14,11,24,24.30
2014,07,14,11,25,24.30
2014,07,14,11,26,24.30
2014,07,14,11,27,24.40
2014,07,14,11,28,24.40
2014,07,14,11,29,24.50
2014,07,14,11,30,24.50
2014,07,14,11,31,24.50
2014,07,14,11,32,24.60
2014,07,14,11,33,24.60
2014,07,14,11,34,24.80
2014,07,14,11,35,24.80
2014,07,14,11,36,25.00
2014,07,14,11,37,25.10
2014,07,14,11,38,25.20
2014,07,14,11,39,25.40
2014,07,14,11,40,25.50
2014,07,14,11,41,25.70
2014,07,14,11,42,25.80
2014,07,14,11,43,25.80
2014,07,14,11,44,25.80
2014,07,14,11,45,25.70
2014,07,14,11,46,25.70
2014,07,14,11,47,25.70
2014,07,14,11,48,25.70
2014,07,14,11,49,25.80
2014,07,14,11,50,25.80
2014,07,14,11,51,25.80
2014,07,14,11,52,25.90
2014,07,14,11,53,26.00
2014,07,14,11,54,26.10
2014,07,14,11,55,26.20
2014,07,14,11,56,26.20
2014,07,14,11,57,26.20
2014,07,14,11,58,26.20
2014,07,14,11,59,26.20
2014,07,14,12,00,26.20
2014,07,14,12,01,26.30
2014,07,14,12,02,26.30
2014,07,14,12,03,26.30
2014,07,14,12,04,26.30
2014,07,14,12,05,26.30
2014,07,14,12,06,26.30
2014,07,14,12,07,26.40
2014,07,14,12,08,26.50
2014,07,14,12,09,26.60
2014,07,14,12,10,26.70
2014,07,14,12,11,26.70
2014,07,14,12,12,26.80
2014,07,14,12,13,26.90
2014,07,14,12,14,27.00
2014,07,14,12,15,27.20
2014,07,14,12,16,27.30
2014,07,14,12,17,27.40
2014,07,14,12,18,27.50
2014,07,14,12,19,27.60
2014,07,14,12,20,27.60
2014,07,14,12,21,27.80
2014,07,14,12,22,28.00
2014,07,14,12,23,28.10
2014,07,14,12,24,28.10
2014,07,14,12,25,28.10
2014,07,14,12,26,28.10
2014,07,14,12,27,28.20
2014,07,14,12,28,28.30
2014,07,14,12,29,28.30
2014,07,14,12,30,28.30
2014,07,14,12,31,28.30
2014,07,14,12,32,28.40
2014,07,14,12,33,28.40
2014,07,14,12,34,28.40
2014,07,14,12,35,28.50
2014,07,14,12,36,28.50
2014,07,14,12,37,28.60
2014,07,14,12,38,28.70
2014,07,14,12,39,28.70
2014,07,14,12,40,28.80
2014,07,14,12,41,28.80
2014,07,14,12,42,28.80
2014,07,14,12,43,28.80
2014,07,14,12,44,28.80
2014,07,14,12,45,28.80
2014,07,14,12,46,28.90
2014,07,14,12,47,28.90
2014,07,14,12,48,28.90
2014,07,14,12,49,28.90
2014,07,14,12,50,28.90
2014,07,14,12,51,28.90
2014,07,14,12,52,28.90
2014,07,14,12,53,28.90
2014,07,14,12,54,29.00
2014,07,14,12,55,28.90
2014,07,14,12,56,28.90
2014,07,14,12,57,28.90
2014,07,14,12,58,28.80
2014,07,14,12,59,28.80
2014,07,14,13,00,28.80
2014,07,14,13,01,28.80
2014,07,14,13,02,28.80
2014,07,14,13,03,28.80
2014,07,14,13,04,28.80
2014,07,14,13,05,28.80
2014,07,14,13,06,28.80
2014,07,14,13,07,28.90
2014,07,14,13,08,29.00
2014,07,14,13,09,29.00
2014,07,14,13,10,29.10
2014,07,14,13,11,29.20
2014,07,14,13,12,29.30
2014,07,14,13,13,29.20
2014,07,14,13,14,29.20
2014,07,14,13,15,29.20
2014,07,14,13,16,29.30
2014,07,14,13,17,29.20
2014,07,14,13,18,29.30
2014,07,14,13,19,29.30
2014,07,14,13,20,29.50
2014,07,14,13,21,29.60
2014,07,14,13,22,29.60
2014,07,14,13,23,29.70
2014,07,14,13,24,29.70
2014,07,14,13,25,29.70
2014,07,14,13,26,29.80
2014,07,14,13,27,29.80
2014,07,14,13,28,29.80
2014,07,14,13,29,29.70
2014,07,14,13,30,29.70
2014,07,14,13,31,29.70
2014,07,14,13,32,29.80
2014,07,14,13,33,29.80
2014,07,14,13,34,29.90
2014,07,14,13,35,29.90
2014,07,14,13,36,30.00
2014,07,14,13,37,30.10
2014,07,14,13,38,30.00
2014,07,14,13,39,29.90
2014,07,14,13,40,29.90
2014,07,14,13,41,29.80
2014,07,14,13,42,29.80
2014,07,14,13,43,29.70
2014,07,14,13,44,29.60
2014,07,14,13,45,29.60
2014,07,14,13,46,29.60
2014,07,14,13,47,29.60
2014,07,14,13,48,29.60
2014,07,14,13,49,29.50
2014,07,14,13,50,29.50
2014,07,14,13,51,29.50
2014,07,14,13,52,29.60
2014,07,14,13,53,29.60
2014,07,14,13,54,29.70
2014,07,14,13,55,29.70
2014,07,14,13,56,29.70
2014,07,14,13,57,29.70
2014,07,14,13,58,29.70
2014,07,14,13,59,29.70
2014,07,14,14,00,29.70
2014,07,14,14,01,29.60
2014,07,14,14,02,29.60
2014,07,14,14,03,29.60
2014,07,14,14,04,29.60
2014,07,14,14,05,29.60
2014,07,14,14,06,29.60
2014,07,14,14,07,29.60
2014,07,14,14,08,29.50
2014,07,14,14,09,29.60
2014,07,14,14,10,29.60
2014,07,14,14,11,29.60
2014,07,14,14,12,29.60
2014,07,14,14,13,29.60
2014,07,14,14,14,29.70
2014,07,14,14,15,29.70
2014,07,14,14,16,29.70
2014,07,14,14,17,29.60
2014,07,14,14,18,29.60
2014,07,14,14,19,29.60
2014,07,14,14,20,29.60
2014,07,14,14,21,29.60
2014,07,14,14,22,29.60
2014,07,14,14,23,29.60
2014,07,14,14,24,29.60
2014,07,14,14,25,29.60
2014,07,14,14,26,29.70
2014,07,14,14,27,29.70
2014,07,14,14,28,29.60
2014,07,14,14,29,29.50
2014,07,14,14,30,29.50
2014,07,14,14,31,29.60
2014,07,14,14,32,29.50
2014,07,14,14,33,29.50
2014,07,14,14,34,29.60
2014,07,14,14,35,29.80
2014,07,14,14,36,29.90
2014,07,14,14,37,30.00
2014,07,14,14,38,30.00
2014,07,14,14,39,29.90
2014,07,14,14,40,29.80
2014,07,14,14,41,29.80
2014,07,14,14,42,29.80
2014,07,14,14,43,29.80
2014,07,14,14,44,29.90
2014,07,14,14,45,29.90
2014,07,14,14,46,30.00
2014,07,14,14,47,30.10
2014,07,14,14,48,30.10
2014,07,14,14,49,30.00
2014,07,14,14,50,29.90
2014,07,14,14,51,29.90
2014,07,14,14,52,29.90
2014,07,14,14,53,29.90
2014,07,14,14,54,29.90
2014,07,14,14,55,29.90
2014,07,14,14,56,29.90
2014,07,14,14,57,29.80
2014,07,14,14,58,29.70
2014,07,14,14,59,29.70
2014,07,14,15,00,29.80
2014,07,14,15,01,29.80
2014,07,14,15,02,29.90
2014,07,14,15,03,29.90
2014,07,14,15,04,29.80
2014,07,14,15,05,29.70
2014,07,14,15,06,29.70
2014,07,14,15,07,29.60
2014,07,14,15,08,29.60
2014,07,14,15,09,29.60
2014,07,14,15,10,29.50
2014,07,14,15,11,29.40
2014,07,14,15,12,29.50
2014,07,14,15,13,29.40
2014,07,14,15,14,29.30
2014,07,14,15,15,29.10
2014,07,14,15,16,29.00
2014,07,14,15,17,28.90
2014,07,14,15,18,29.00
2014,07,14,15,19,29.20
2014,07,14,15,20,29.30
2014,07,14,15,21,29.40
2014,07,14,15,22,29.50
2014,07,14,15,23,29.50
2014,07,14,15,24,29.50
2014,07,14,15,25,29.40
2014,07,14,15,26,29.30
2014,07,14,15,27,29.30
2014,07,14,15,28,29.30
2014,07,14,15,29,29.30
2014,07,14,15,30,29.30
2014,07,14,15,31,29.30
2014,07,14,15,32,29.20
2014,07,14,15,33,29.10
2014,07,14,15,34,29.10
2014,07,14,15,35,29.00
2014,07,14,15,36,28.90
2014,07,14,15,37,28.90
2014,07,14,15,38,28.80
2014,07,14,15,39,28.80
2014,07,14,15,40,28.80
2014,07,14,15,41,28.70
2014,07,14,15,42,28.70
2014,07,14,15,43,28.70
2014,07,14,15,44,28.70
2014,07,14,15,45,28.70
2014,07,14,15,46,28.70
2014,07,14,15,47,28.70
2014,07,14,15,48,28.80
2014,07,14,15,49,28.90
2014,07,14,15,50,29.10
2014,07,14,15,51,29.20
2014,07,14,15,52,29.20
2014,07,14,15,53,29.00
2014,07,14,15,54,28.90
2014,07,14,15,55,28.80
2014,07,14,15,56,28.70
2014,07,14,15,57,28.60
2014,07,14,15,58,28.50
2014,07,14,15,59,28.40
2014,07,14,16,00,28.40
2014,07,14,16,01,28.40
2014,07,14,16,02,28.50
2014,07,14,16,03,28.60
2014,07,14,16,04,28.80
2014,07,14,16,05,28.90
2014,07,14,16,06,28.90
2014,07,14,16,07,28.90
2014,07,14,16,08,28.90
2014,07,14,16,09,28.90
2014,07,14,16,10,28.90
2014,07,14,16,11,28.90
2014,07,14,16,12,28.80
2014,07,14,16,13,28.80
2014,07,14,16,14,28.90
2014,07,14,16,15,29.00
2014,07,14,16,16,29.10
2014,07,14,16,17,29.10
2014,07,14,16,18,29.10
2014,07,14,16,19,29.10
2014,07,14,16,20,29.20
2014,07,14,16,21,29.20
2014,07,14,16,22,29.30
2014,07,14,16,23,29.20
2014,07,14,16,24,29.20
2014,07,14,16,25,29.10
2014,07,14,16,26,29.10
2014,07,14,16,27,29.20
2014,07,14,16,28,29.20
2014,07,14,16,29,29.20
2014,07,14,16,30,29.20
2014,07,14,16,31,29.20
2014,07,14,16,32,29.20
2014,07,14,16,33,29.30
2014,07,14,16,34,29.30
2014,07,14,16,35,29.30
2014,07,14,16,36,29.40
2014,07,14,16,37,29.50
2014,07,14,16,38,29.70
2014,07,14,16,39,29.70
2014,07,14,16,40,29.70
2014,07,14,16,41,29.70
2014,07,14,16,42,29.70
2014,07,14,16,43,29.80
2014,07,14,16,44,29.80
2014,07,14,16,45,29.80
2014,07,14,16,46,29.80
2014,07,14,16,47,29.90
2014,07,14,16,48,29.90
2014,07,14,16,49,30.00
2014,07,14,16,50,30.00
2014,07,14,16,51,30.10
2014,07,14,16,52,30.20
2014,07,14,16,53,30.20
2014,07,14,16,54,30.30
2014,07,14,16,55,30.40
2014,07,14,16,56,30.50
2014,07,14,16,57,30.50
2014,07,14,16,58,30.40
2014,07,14,16,59,30.40
2014,07,14,17,00,30.30
2014,07,14,17,01,30.30
2014,07,14,17,02,30.30
2014,07,14,17,03,30.30
2014,07,14,17,04,30.30
2014,07,14,17,05,30.30
2014,07,14,17,06,30.30
2014,07,14,17,07,30.40
2014,07,14,17,08,30.40
2014,07,14,17,09,30.40
2014,07,14,17,10,30.30
2014,07,14,17,11,30.30
2014,07,14,17,12,30.20
2014,07,14,17,13,30.20
2014,07,14,17,14,30.20
2014,07,14,17,15,30.10
2014,07,14,17,16,30.00
2014,07,14,17,17,29.90
2014,07,14,17,18,29.80
2014,07,14,17,19,29.90
2014,07,14,17,20,29.90
2014,07,14,17,21,30.00
2014,07,14,17,22,30.00